This demonstration page uses our WeatherBlox Daily Observations layout. Learn more.

Left ArrowRight Arrow

Hourly Observations for April 11, 2018

Temp ( °F °C ) Dew Point ( °F °C ) Humidity (%) Winds ( mph kmh ) Pressure ( in mb ) Visibility ( mi km ) Precip ( " mm )
1:53 am 01:53 Clear 32 0 29 -1.7 88 88 Calm 30.24 1024 10 16 0.00 0.00
2:53 am 02:53 Clear 29 -1.7 26 -3.3 89 89 Calm 30.24 1024 9 14 0.00 0.00
3:53 am 03:53 Clear 29 -1.7 26 -3.3 89 89 Calm 30.22 1023 8 13 0.00 0.00
4:53 am 04:53 Clear 28 -2.2 27 -2.8 96 96 Calm 30.22 1023 7 11 0.00 0.00
5:53 am 05:53 Cloudy 31 -0.6 28 -2.2 89 89 E 3 6 30.19 1023 7 11 0.00 0.00
6:53 am 06:53 Clear with Mist and Fog 29 -1.7 28 -2.2 96 96 Calm 30.20 1023 6 10 0.00 0.00
7:53 am 07:53 Partly Cloudy with Mist and Fog 30 -1.1 27 -2.8 88 88 Calm 30.22 1023 5 8 0.00 0.00
8:53 am 08:53 Mostly Cloudy with Haze 37 2.8 31 -0.6 79 79 Calm 30.22 1023 6 10 0.00 0.00
9:53 am 09:53 Mostly Sunny 45 7.2 30 -1.1 56 56 SW 9 15 30.21 1023 10 16 0.00 0.00
10:53 am 10:53 Sunny 47 8.3 29 -1.7 50 50 VRB 7 11 30.21 1023 10 16 0.00 0.00
11:53 am 11:53 Sunny 51 10.6 31 -0.6 46 46 VRB 6 9 30.20 1023 10 16 0.00 0.00
12:53 pm 12:53 Sunny 54 12.2 31 -0.6 42 42 SW 12 19 30.17 1022 10 16 0.00 0.00
1:53 pm 13:53 Sunny 58 14.4 32 0 38 38 WSW 10 17 30.13 1020 10 16 0.00 0.00
2:53 pm 14:53 Sunny 60 15.6 35 1.7 39 39 undefined N/A 30.09 1019 N/A 0.00 0.00
3:53 pm 15:53 Sunny 63 17.2 36 2.2 37 37 WSW 16 26 30.07 1018 10 16 0.00 0.00
4:53 pm 16:53 Sunny 64 17.8 37 2.8 37 37 SW 17 28 30.06 1018 10 16 0.00 0.00
5:53 pm 17:53 Sunny 65 18.3 36 2.2 34 34 WSW 15 24 30.04 1017 10 16 0.00 0.00
6:53 pm 18:53 Sunny 63 17.2 36 2.2 37 37 SSW 9 15 30.04 1017 10 16 0.00 0.00
7:53 pm 19:53 Sunny 62 16.7 34 1.1 35 35 SW 9 15 30.03 1017 10 16 0.00 0.00
8:53 pm 20:53 Clear 60 15.6 35 1.7 39 39 S 5 7 30.04 1017 10 16 0.00 0.00
9:53 pm 21:53 Clear 59 15 37 2.8 44 44 S 3 6 30.04 1017 10 16 0.00 0.00
10:53 pm 22:53 Clear 59 15 37 2.8 44 44 VRB 5 7 30.01 1016 10 16 0.00 0.00
11:53 pm 23:53 Clear 58 14.4 37 2.8 46 46 Calm 30.02 1017 10 16 0.00 0.00

Powered by AerisWeather